,,,PA_Meas_PMT16A,,PR_Meas_QMR101_102,,RH_Meas_QMH101,,SR_Meas_QMS101,,TA_Meas_QMH101,,GenWind,,GenWind,
date,time,status,PA,status,PR,status,RH,status,SR,status,TA,status,DirAvg,status,SpdAvg,
2009-05-16, 00:00:04,VALID,999.537,VALID,0,VALID,93.7909,VALID,0,VALID,23.5079,VALID,48,VALID,0.544531,
2009-05-16, 00:01:04,VALID,999.504,VALID,0,VALID,93.8214,VALID,0,VALID,23.5061,VALID,121,VALID,0.617578,
2009-05-16, 00:02:04,VALID,999.475,VALID,0,VALID,93.8367,VALID,0,VALID,23.5859,VALID,133,VALID,0.535156,
2009-05-16, 00:03:04,VALID,999.458,VALID,0,VALID,93.6841,VALID,0,VALID,23.6445,VALID,138,VALID,1.24297,
2009-05-16, 00:04:04,VALID,999.46,VALID,0,VALID,93.3942,VALID,0,VALID,23.6622,VALID,138,VALID,1.11875,
2009-05-16, 00:05:04,VALID,999.422,VALID,0,VALID,93.0737,VALID,0,VALID,23.7811,VALID,143,VALID,0.872656,
2009-05-16, 00:06:04,VALID,999.38,VALID,0,VALID,92.7457,VALID,0,VALID,23.8006,VALID,143,VALID,0.50625,
2009-05-16, 00:07:04,VALID,999.353,VALID,0,VALID,92.532,VALID,0,VALID,23.8183,VALID,140,VALID,0.450391,
2009-05-16, 00:08:04,VALID,999.329,VALID,0,VALID,92.3489,VALID,0,VALID,23.8396,VALID,134,VALID,0.310547,
2009-05-16, 00:09:04,VALID,999.309,VALID,0,VALID,92.1582,VALID,0,VALID,23.7988,VALID,134,VALID,0.155859,
2009-05-16, 00:10:04,VALID,999.308,VALID,0,VALID,92.1124,VALID,0,VALID,23.8201,VALID,134,VALID,0.260938,
2009-05-16, 00:11:04,VALID,999.26,VALID,0,VALID,92.0971,VALID,0,VALID,23.7793,VALID,134,VALID,0.234375,
2009-05-16, 00:12:04,VALID,999.289,VALID,0,VALID,92.3031,VALID,0,VALID,23.8006,VALID,134,VALID,0.541016,
2009-05-16, 00:13:04,VALID,999.247,VALID,0,VALID,92.4023,VALID,0,VALID,23.7988,VALID,134,VALID,0.561719,
2009-05-16, 00:14:04,VALID,999.232,VALID,0,VALID,92.3947,VALID,0,VALID,23.8396,VALID,134,VALID,0.743359,
2009-05-16, 00:15:04,VALID,999.251,VALID,0,VALID,92.1658,VALID,0,VALID,23.8591,VALID,134,VALID,0.788672,
2009-05-16, 00:16:04,VALID,999.241,VALID,0,VALID,92.1124,VALID,0,VALID,23.8573,VALID,134,VALID,0.837891,
2009-05-16, 00:17:04,VALID,999.247,VALID,0,VALID,92.12,VALID,0,VALID,23.8786,VALID,134,VALID,0.725391,
2009-05-16, 00:18:04,VALID,999.223,VALID,0,VALID,92.059,VALID,0,VALID,23.8982,VALID,134,VALID,0.823828,
2009-05-16, 00:19:04,VALID,999.195,VALID,0,VALID,92.0285,VALID,0,VALID,23.8963,VALID,136,VALID,0.826172,
2009-05-16, 00:20:04,VALID,999.179,VALID,0,VALID,91.9217,VALID,0,VALID,23.8963,VALID,160,VALID,1.03828,
2009-05-16, 00:21:04,VALID,999.156,VALID,0,VALID,91.9293,VALID,0,VALID,23.9159,VALID,155,VALID,1.04219,
2009-05-16, 00:22:04,VALID,999.122,VALID,0,VALID,91.792,VALID,0,VALID,23.9567,VALID,148,VALID,0.977344,
2009-05-16, 00:23:04,VALID,999.086,VALID,0,VALID,91.6317,VALID,0,VALID,23.9567,VALID,143,VALID,0.997656,
2009-05-16, 00:24:04,VALID,999.088,VALID,0,VALID,91.5936,VALID,0,VALID,23.9744,VALID,135,VALID,0.756641,
2009-05-16, 00:25:04,VALID,999.082,VALID,0,VALID,91.502,VALID,0,VALID,23.9744,VALID,134,VALID,0.592969,
2009-05-16, 00:26:04,VALID,999.044,VALID,0,VALID,91.4486,VALID,0,VALID,23.9957,VALID,135,VALID,0.810156,
2009-05-16, 00:27:04,VALID,999.032,VALID,0,VALID,91.3571,VALID,0,VALID,23.9957,VALID,138,VALID,1.00117,
2009-05-16, 00:28:04,VALID,999.029,VALID,0,VALID,91.0977,VALID,0,VALID,23.9957,VALID,141,VALID,0.922266,
2009-05-16, 00:29:04,VALID,999.011,VALID,0,VALID,90.7772,VALID,0,VALID,23.9744,VALID,145,VALID,1.02656,
2009-05-16, 00:30:04,VALID,999.013,VALID,0,VALID,90.6399,VALID,0,VALID,23.9567,VALID,150,VALID,1.09141,
2009-05-16, 00:31:04,VALID,998.941,VALID,0,VALID,90.6017,VALID,0,VALID,23.9354,VALID,152,VALID,1.11758,
2009-05-16, 00:32:04,VALID,998.925,VALID,0,VALID,90.4873,VALID,0,VALID,23.9354,VALID,151,VALID,0.971094,
2009-05-16, 00:33:04,VALID,998.922,VALID,0,VALID,90.5483,VALID,0,VALID,23.9372,VALID,144,VALID,1.12852,
2009-05-16, 00:34:04,VALID,998.908,VALID,0,VALID,90.6933,VALID,0,VALID,23.9177,VALID,146,VALID,0.992578,
2009-05-16, 00:35:04,VALID,998.885,VALID,0,VALID,90.8611,VALID,0,VALID,23.8573,VALID,146,VALID,0.797656,
2009-05-16, 00:36:04,VALID,998.881,VALID,0,VALID,91.0443,VALID,0,VALID,23.8591,VALID,146,VALID,0.531641,
2009-05-16, 00:37:04,VALID,998.866,VALID,0,VALID,91.0519,VALID,0,VALID,23.8201,VALID,146,VALID,0.16875,
2009-05-16, 00:38:04,VALID,998.871,VALID,0,VALID,91.0824,VALID,0,VALID,23.8006,VALID,146,VALID,0,
2009-05-16, 00:39:04,VALID,998.86,VALID,0,VALID,91.2274,VALID,0,VALID,23.7616,VALID,146,VALID,0.151562,
2009-05-16, 00:40:04,VALID,998.909,VALID,0,VALID,91.4334,VALID,0,VALID,23.7402,VALID,146,VALID,0.292188,
2009-05-16, 00:41:04,VALID,998.893,VALID,0,VALID,91.2045,VALID,0,VALID,23.7012,VALID,146,VALID,0.525391,
2009-05-16, 00:42:04,VALID,998.914,VALID,0,VALID,91.2808,VALID,0,VALID,23.6427,VALID,146,VALID,0.610156,
2009-05-16, 00:43:04,VALID,998.933,VALID,0,VALID,91.5707,VALID,0,VALID,23.6054,VALID,146,VALID,0.542969,
2009-05-16, 00:44:04,VALID,998.919,VALID,0,VALID,91.853,VALID,0,VALID,23.5451,VALID,146,VALID,0.444531,
2009-05-16, 00:45:04,VALID,998.897,VALID,0,VALID,91.9369,VALID,0,VALID,23.5061,VALID,146,VALID,0.402734,
2009-05-16, 00:46:04,VALID,998.877,VALID,0,VALID,92.3947,VALID,0,VALID,23.4866,VALID,128,VALID,0.488672,
2009-05-16, 00:47:04,VALID,998.855,VALID,0,VALID,92.7228,VALID,0,VALID,23.4884,VALID,44,VALID,0.693359,
2009-05-16, 00:48:04,VALID,998.836,VALID,0,VALID,92.7914,VALID,0,VALID,23.5079,VALID,35,VALID,0.732031,
2009-05-16, 00:49:04,VALID,998.825,VALID,0,VALID,92.7838,VALID,0,VALID,23.5061,VALID,22,VALID,0.881641,
2009-05-16, 00:50:04,VALID,998.825,VALID,0,VALID,92.6465,VALID,0,VALID,23.5061,VALID,22,VALID,0.995703,
2009-05-16, 00:51:04,VALID,998.812,VALID,0,VALID,92.6846,VALID,0,VALID,23.5274,VALID,22,VALID,0.896875,
2009-05-16, 00:52:04,VALID,998.796,VALID,0,VALID,92.4176,VALID,0,VALID,23.5256,VALID,26,VALID,1.18711,
2009-05-16, 00:53:04,VALID,998.818,VALID,0,VALID,92.2268,VALID,0,VALID,23.5469,VALID,7,VALID,1.23594,
2009-05-16, 00:54:04,VALID,998.813,VALID,0,VALID,92.0437,VALID,0,VALID,23.5256,VALID,19,VALID,1.23984,
2009-05-16, 00:55:04,VALID,998.835,VALID,0,VALID,91.8988,VALID,0.112286,VALID,23.4866,VALID,28,VALID,1.15859,
2009-05-16, 00:56:04,VALID,998.841,VALID,0,VALID,92.1429,VALID,0,VALID,23.4475,VALID,39,VALID,1.15703,
2009-05-16, 00:57:04,VALID,998.844,VALID,0,VALID,92.3184,VALID,0,VALID,23.428,VALID,44,VALID,1.03008,
2009-05-16, 00:58:04,VALID,998.84,VALID,0,VALID,92.4634,VALID,0,VALID,23.389,VALID,53,VALID,0.604688,
2009-05-16, 00:59:04,VALID,998.825,VALID,0,VALID,92.6694,VALID,0,VALID,23.3695,VALID,61,VALID,0.782422,
2009-05-16, 01:00:04,VALID,998.808,VALID,0,VALID,92.7304,VALID,0,VALID,23.3287,VALID,70,VALID,0.621875,
2009-05-16, 01:01:04,VALID,998.81,VALID,0,VALID,92.7991,VALID,0,VALID,23.3305,VALID,84,VALID,0.682031,
2009-05-16, 01:02:04,VALID,998.792,VALID,0,VALID,92.8525,VALID,0.112286,VALID,23.3305,VALID,88,VALID,0.420312,
2009-05-16, 01:03:04,VALID,998.778,VALID,0,VALID,92.9135,VALID,0.112286,VALID,23.311,VALID,88,VALID,0.348828,
2009-05-16, 01:04:04,VALID,998.771,VALID,0,VALID,93.0127,VALID,0,VALID,23.2915,VALID,88,VALID,0.289063,
2009-05-16, 01:05:04,VALID,998.742,VALID,0,VALID,93.0051,VALID,0,VALID,23.3127,VALID,88,VALID,0.148047,
2009-05-16, 01:06:04,VALID,998.703,VALID,0,VALID,93.0127,VALID,0,VALID,23.2312,VALID,88,VALID,0.0792969,
2009-05-16, 01:07:04,VALID,998.685,VALID,0,VALID,92.9822,VALID,0,VALID,23.2329,VALID,88,VALID,0,
2009-05-16, 01:08:04,VALID,998.646,VALID,0,VALID,93.0661,VALID,0,VALID,23.2134,VALID,88,VALID,0,
2009-05-16, 01:09:04,VALID,998.665,VALID,0,VALID,93.2416,VALID,0,VALID,23.1921,VALID,88,VALID,0.348047,
2009-05-16, 01:10:04,VALID,998.652,VALID,0,VALID,93.4552,VALID,0,VALID,23.2329,VALID,88,VALID,0.502344,
2009-05-16, 01:11:04,VALID,998.658,VALID,0,VALID,93.6231,VALID,0,VALID,23.2329,VALID,38,VALID,0.647266,
2009-05-16, 01:12:04,VALID,998.644,VALID,0,VALID,93.6536,VALID,0,VALID,23.2524,VALID,37,VALID,0.612109,
2009-05-16, 01:13:04,VALID,998.674,VALID,0,VALID,93.6078,VALID,0,VALID,23.2329,VALID,37,VALID,0.614844,
2009-05-16, 01:14:04,VALID,998.644,VALID,0,VALID,93.4705,VALID,0,VALID,23.2347,VALID,37,VALID,0.610547,
2009-05-16, 01:15:04,VALID,998.664,VALID,0,VALID,93.646,VALID,0,VALID,23.1744,VALID,37,VALID,0.682031,
2009-05-16, 01:16:04,VALID,998.65,VALID,0,VALID,93.7604,VALID,0,VALID,23.1744,VALID,37,VALID,0.655469,
2009-05-16, 01:17:04,VALID,998.655,VALID,0,VALID,93.768,VALID,0,VALID,23.1939,VALID,37,VALID,0.662891,
2009-05-16, 01:18:04,VALID,998.635,VALID,0,VALID,93.9511,VALID,0,VALID,23.2134,VALID,37,VALID,0.774609,
2009-05-16, 01:19:04,VALID,998.645,VALID,0,VALID,93.9206,VALID,0,VALID,23.2134,VALID,37,VALID,0.869922,
2009-05-16, 01:20:04,VALID,998.639,VALID,0,VALID,93.7146,VALID,0,VALID,23.1939,VALID,37,VALID,0.997266,
2009-05-16, 01:21:04,VALID,998.628,VALID,0,VALID,93.7909,VALID,0.112286,VALID,23.1939,VALID,37,VALID,0.848828,
2009-05-16, 01:22:04,VALID,998.615,VALID,0,VALID,93.6994,VALID,0.112286,VALID,23.1726,VALID,43,VALID,0.71875,
2009-05-16, 01:23:04,VALID,998.609,VALID,0,VALID,93.6307,VALID,0,VALID,23.1744,VALID,50,VALID,0.694531,
2009-05-16, 01:24:04,VALID,998.622,VALID,0,VALID,93.4552,VALID,0.112286,VALID,23.1549,VALID,50,VALID,0.811719,
2009-05-16, 01:25:04,VALID,998.616,VALID,0,VALID,93.4857,VALID,0,VALID,23.1549,VALID,50,VALID,0.708984,
2009-05-16, 01:26:04,VALID,998.645,VALID,0,VALID,93.5544,VALID,0,VALID,23.1549,VALID,50,VALID,0.743359,
2009-05-16, 01:27:04,VALID,998.632,VALID,0,VALID,93.6002,VALID,0.112286,VALID,23.1531,VALID,50,VALID,0.639063,
2009-05-16, 01:28:04,VALID,998.634,VALID,0,VALID,93.4857,VALID,0,VALID,23.1939,VALID,50,VALID,0.655859,
2009-05-16, 01:29:04,VALID,998.659,VALID,0,VALID,93.4934,VALID,0,VALID,23.2134,VALID,50,VALID,0.553906,
2009-05-16, 01:30:04,VALID,998.687,VALID,0,VALID,93.3942,VALID,0,VALID,23.2134,VALID,50,VALID,0.541797,
2009-05-16, 01:31:04,VALID,998.678,VALID,0,VALID,93.3484,VALID,0.112286,VALID,23.2134,VALID,50,VALID,0.498828,
2009-05-16, 01:32:04,VALID,998.695,VALID,0,VALID,93.2797,VALID,0,VALID,23.2134,VALID,50,VALID,0.644531,
2009-05-16, 01:33:04,VALID,998.724,VALID,0,VALID,93.2645,VALID,0,VALID,23.2347,VALID,50,VALID,0.69375,
2009-05-16, 01:34:04,VALID,998.753,VALID,0,VALID,93.3942,VALID,0,VALID,23.2329,VALID,50,VALID,0.601953,
2009-05-16, 01:35:04,VALID,998.723,VALID,0,VALID,93.4018,VALID,0,VALID,23.2524,VALID,50,VALID,0.482031,
2009-05-16, 01:36:04,VALID,998.763,VALID,0,VALID,93.4094,VALID,0.112286,VALID,23.2915,VALID,50,VALID,0.527734,
2009-05-16, 01:37:04,VALID,998.75,VALID,0,VALID,93.3026,VALID,0,VALID,23.2915,VALID,50,VALID,0.645703,
2009-05-16, 01:38:04,VALID,998.771,VALID,0,VALID,93.295,VALID,0,VALID,23.311,VALID,54,VALID,0.613281,
2009-05-16, 01:39:04,VALID,998.754,VALID,0,VALID,93.1424,VALID,0,VALID,23.311,VALID,57,VALID,0.773047,
2009-05-16, 01:40:04,VALID,998.76,VALID,0,VALID,92.9364,VALID,0,VALID,23.311,VALID,63,VALID,0.715625,
2009-05-16, 01:41:04,VALID,998.746,VALID,0,VALID,92.9974,VALID,0,VALID,23.311,VALID,63,VALID,0.876953,
2009-05-16, 01:42:04,VALID,998.727,VALID,0,VALID,92.9745,VALID,0,VALID,23.3518,VALID,47,VALID,0.973047,
2009-05-16, 01:43:04,VALID,998.688,VALID,0,VALID,92.7304,VALID,0,VALID,23.3305,VALID,47,VALID,0.892578,
2009-05-16, 01:44:04,VALID,998.686,VALID,0,VALID,92.6388,VALID,0,VALID,23.2897,VALID,43,VALID,0.913672,
2009-05-16, 01:45:04,VALID,998.701,VALID,0,VALID,92.738,VALID,0.112286,VALID,23.3305,VALID,43,VALID,0.746484,
2009-05-16, 01:46:04,VALID,998.686,VALID,0,VALID,92.5473,VALID,0,VALID,23.311,VALID,43,VALID,0.751953,
2009-05-16, 01:47:04,VALID,998.662,VALID,0,VALID,92.3794,VALID,0.112286,VALID,23.2719,VALID,43,VALID,0.804688,
2009-05-16, 01:48:04,VALID,998.662,VALID,0,VALID,92.5778,VALID,0.112286,VALID,23.2719,VALID,43,VALID,0.940234,
2009-05-16, 01:49:04,VALID,998.651,VALID,0,VALID,92.3871,VALID,0,VALID,23.2524,VALID,43,VALID,0.879297,
2009-05-16, 01:50:04,VALID,998.645,VALID,0,VALID,92.3718,VALID,0,VALID,23.2134,VALID,44,VALID,0.876562,
2009-05-16, 01:51:04,VALID,998.642,VALID,0,VALID,92.4557,VALID,0,VALID,23.1939,VALID,52,VALID,0.896094,
2009-05-16, 01:52:04,VALID,998.613,VALID,0,VALID,92.4939,VALID,0,VALID,23.1744,VALID,53,VALID,0.784375,
2009-05-16, 01:53:04,VALID,998.621,VALID,0,VALID,92.5015,VALID,0,VALID,23.1549,VALID,54,VALID,0.722266,
2009-05-16, 01:54:04,VALID,998.61,VALID,0,VALID,92.5549,VALID,0,VALID,23.1354,VALID,54,VALID,0.542969,
2009-05-16, 01:55:04,VALID,998.587,VALID,0,VALID,92.4939,VALID,0,VALID,23.0964,VALID,54,VALID,0.223828,
2009-05-16, 01:56:04,VALID,998.567,VALID,0,VALID,92.6388,VALID,0,VALID,23.0573,VALID,54,VALID,0.429297,
2009-05-16, 01:57:04,VALID,998.578,VALID,0,VALID,92.6846,VALID,0,VALID,23.0378,VALID,54,VALID,0.107031,
2009-05-16, 01:58:04,VALID,998.612,VALID,0,VALID,92.7762,VALID,0,VALID,23.0378,VALID,54,VALID,0,
2009-05-16, 01:59:04,VALID,998.643,VALID,0,VALID,92.8906,VALID,0,VALID,23.0201,VALID,54,VALID,0,
2009-05-16, 02:00:04,VALID,998.632,VALID,0,VALID,93.1805,VALID,0,VALID,23.0183,VALID,54,VALID,0.589844,
2009-05-16, 02:01:04,VALID,998.614,VALID,0,VALID,93.2874,VALID,0,VALID,23.0378,VALID,63,VALID,0.898047,
2009-05-16, 02:02:04,VALID,998.617,VALID,0,VALID,93.2874,VALID,0,VALID,23.0573,VALID,64,VALID,0.865625,
2009-05-16, 02:03:04,VALID,998.614,VALID,0,VALID,93.2568,VALID,0,VALID,23.0769,VALID,64,VALID,0.657031,
2009-05-16, 02:04:04,VALID,998.624,VALID,0,VALID,93.1348,VALID,0,VALID,23.0769,VALID,72,VALID,0.709375,
2009-05-16, 02:05:04,VALID,998.6,VALID,0,VALID,93.0432,VALID,0,VALID,23.0769,VALID,80,VALID,1.02109,
2009-05-16, 02:06:04,VALID,998.596,VALID,0,VALID,92.9517,VALID,0,VALID,23.0964,VALID,85,VALID,1.0125,
2009-05-16, 02:07:04,VALID,998.601,VALID,0,VALID,92.7914,VALID,0,VALID,23.1354,VALID,93,VALID,0.829297,
2009-05-16, 02:08:04,VALID,998.602,VALID,0,VALID,92.6388,VALID,0,VALID,23.1354,VALID,87,VALID,0.739453,
2009-05-16, 02:09:04,VALID,998.605,VALID,0,VALID,92.4557,VALID,0,VALID,23.1549,VALID,87,VALID,0.598437,
2009-05-16, 02:10:04,VALID,998.587,VALID,0,VALID,92.3947,VALID,0,VALID,23.1549,VALID,87,VALID,0.399609,
2009-05-16, 02:11:04,VALID,998.571,VALID,0,VALID,92.3566,VALID,0,VALID,23.1354,VALID,100,VALID,0.433594,
2009-05-16, 02:12:04,VALID,998.521,VALID,0,VALID,92.2955,VALID,0,VALID,23.1744,VALID,113,VALID,0.426953,
2009-05-16, 02:13:04,VALID,998.545,VALID,0,VALID,92.2726,VALID,0,VALID,23.1744,VALID,113,VALID,0.308594,
2009-05-16, 02:14:04,VALID,998.525,VALID,0,VALID,92.1429,VALID,0,VALID,23.1744,VALID,113,VALID,0.0199219,
2009-05-16, 02:15:04,VALID,998.521,VALID,0,VALID,92.0666,VALID,0,VALID,23.1549,VALID,113,VALID,0.0753906,
2009-05-16, 02:16:04,VALID,998.487,VALID,0,VALID,92.1124,VALID,0,VALID,23.1549,VALID,113,VALID,0.155078,
2009-05-16, 02:17:04,VALID,998.516,VALID,0,VALID,92.1811,VALID,0,VALID,23.1549,VALID,113,VALID,0.377734,
2009-05-16, 02:18:04,VALID,998.452,VALID,0,VALID,92.2268,VALID,0,VALID,23.1549,VALID,113,VALID,0.419922,
2009-05-16, 02:19:04,VALID,998.471,VALID,0,VALID,92.1963,VALID,0,VALID,23.1549,VALID,113,VALID,0.352734,
2009-05-16, 02:20:04,VALID,998.449,VALID,0,VALID,92.059,VALID,0,VALID,23.1957,VALID,113,VALID,0.358203,
2009-05-16, 02:21:04,VALID,998.425,VALID,0,VALID,92.059,VALID,0,VALID,23.1939,VALID,113,VALID,0.40625,
2009-05-16, 02:22:04,VALID,998.358,VALID,0,VALID,91.853,VALID,0,VALID,23.2152,VALID,113,VALID,0.553906,
2009-05-16, 02:23:04,VALID,998.355,VALID,0,VALID,91.7843,VALID,0,VALID,23.2134,VALID,113,VALID,0.690625,
2009-05-16, 02:24:04,VALID,998.34,VALID,0,VALID,91.6928,VALID,0,VALID,23.2737,VALID,113,VALID,0.74375,
2009-05-16, 02:25:04,VALID,998.293,VALID,0,VALID,91.4334,VALID,0,VALID,23.2915,VALID,113,VALID,0.801172,
2009-05-16, 02:26:04,VALID,998.272,VALID,0,VALID,91.2655,VALID,0,VALID,23.3305,VALID,112,VALID,0.871484,
2009-05-16, 02:27:04,VALID,998.25,VALID,0,VALID,91.1129,VALID,0,VALID,23.3908,VALID,112,VALID,0.740625,
2009-05-16, 02:28:04,VALID,998.218,VALID,0,VALID,90.8611,VALID,0,VALID,23.389,VALID,112,VALID,0.891797,
2009-05-16, 02:29:04,VALID,998.203,VALID,0,VALID,90.8077,VALID,0,VALID,23.428,VALID,112,VALID,0.720703,
2009-05-16, 02:30:04,VALID,998.225,VALID,0,VALID,90.762,VALID,0,VALID,23.428,VALID,112,VALID,0.639844,
2009-05-16, 02:31:04,VALID,998.222,VALID,0,VALID,90.7467,VALID,0,VALID,23.4085,VALID,112,VALID,0.49375,
2009-05-16, 02:32:04,VALID,998.208,VALID,0,VALID,90.8764,VALID,0,VALID,23.428,VALID,112,VALID,0.214844,
2009-05-16, 02:33:04,VALID,998.19,VALID,0,VALID,90.8001,VALID,0,VALID,23.4298,VALID,112,VALID,0.0804688,
2009-05-16, 02:34:04,VALID,998.204,VALID,0,VALID,90.8535,VALID,0,VALID,23.3695,VALID,285,VALID,0.844141,
2009-05-16, 02:35:04,VALID,998.19,VALID,0,VALID,90.9832,VALID,0,VALID,23.311,VALID,310,VALID,0.7125,
2009-05-16, 02:36:04,VALID,998.174,VALID,0,VALID,91.2274,VALID,0,VALID,23.2719,VALID,311,VALID,0.677734,
2009-05-16, 02:37:04,VALID,998.181,VALID,0,VALID,91.5478,VALID,0,VALID,23.2134,VALID,312,VALID,0.691797,
2009-05-16, 02:38:04,VALID,998.174,VALID,0,VALID,91.8301,VALID,0,VALID,23.1762,VALID,331,VALID,0.416797,
2009-05-16, 02:39:04,VALID,998.16,VALID,0,VALID,91.9522,VALID,0,VALID,23.1354,VALID,331,VALID,0.3,
2009-05-16, 02:40:04,VALID,998.141,VALID,0,VALID,92.1582,VALID,0,VALID,23.0964,VALID,333,VALID,0.592578,
2009-05-16, 02:41:04,VALID,998.099,VALID,0,VALID,92.3108,VALID,0,VALID,23.0964,VALID,333,VALID,0.482031,
2009-05-16, 02:42:04,VALID,998.096,VALID,0,VALID,92.2421,VALID,0,VALID,23.0964,VALID,333,VALID,0.423828,
2009-05-16, 02:43:04,VALID,998.083,VALID,0,VALID,92.0132,VALID,0,VALID,23.0964,VALID,336,VALID,0.171484,
2009-05-16, 02:44:04,VALID,998.057,VALID,0,VALID,91.8911,VALID,0,VALID,23.0769,VALID,336,VALID,0.175391,
2009-05-16, 02:45:04,VALID,998.044,VALID,0,VALID,91.9827,VALID,0,VALID,23.0786,VALID,336,VALID,0.152344,
2009-05-16, 02:46:04,VALID,998.057,VALID,0,VALID,92.0514,VALID,0,VALID,23.0591,VALID,336,VALID,0.440234,
2009-05-16, 02:47:04,VALID,998.085,VALID,0,VALID,92.0743,VALID,0,VALID,22.9988,VALID,336,VALID,0.527734,
2009-05-16, 02:48:04,VALID,998.1,VALID,0,VALID,92.12,VALID,0,VALID,22.9793,VALID,5,VALID,0.699219,
2009-05-16, 02:49:04,VALID,998.082,VALID,0,VALID,92.0895,VALID,0,VALID,22.9208,VALID,6,VALID,0.790234,
2009-05-16, 02:50:04,VALID,998.089,VALID,0,VALID,92.4252,VALID,0,VALID,22.8818,VALID,6,VALID,0.569531,
2009-05-16, 02:51:04,VALID,998.094,VALID,0,VALID,92.7228,VALID,0,VALID,22.8623,VALID,6,VALID,0.351953,
2009-05-16, 02:52:04,VALID,998.095,VALID,0,VALID,92.7151,VALID,0,VALID,22.8623,VALID,6,VALID,0.228516,
2009-05-16, 02:53:04,VALID,998.123,VALID,0,VALID,92.677,VALID,0,VALID,22.8445,VALID,6,VALID,0.197656,
2009-05-16, 02:54:04,VALID,998.15,VALID,0,VALID,92.8906,VALID,0,VALID,22.8037,VALID,6,VALID,0.269531,
2009-05-16, 02:55:04,VALID,998.129,VALID,0,VALID,92.9974,VALID,0,VALID,22.8037,VALID,6,VALID,0.401563,
2009-05-16, 02:56:04,VALID,998.127,VALID,0,VALID,93.3255,VALID,0,VALID,22.8232,VALID,3,VALID,0.525,
2009-05-16, 02:57:04,VALID,998.124,VALID,0,VALID,93.4247,VALID,0,VALID,22.8818,VALID,231,VALID,0.681641,
2009-05-16, 02:58:04,VALID,998.101,VALID,0,VALID,93.4628,VALID,0,VALID,22.942,VALID,233,VALID,0.714844,
2009-05-16, 02:59:04,VALID,998.097,VALID,0,VALID,93.4934,VALID,0,VALID,22.9793,VALID,236,VALID,0.811719,
2009-05-16, 03:00:04,VALID,998.069,VALID,0,VALID,93.4171,VALID,0,VALID,23.0183,VALID,236,VALID,0.634766,
2009-05-16, 03:01:04,VALID,998.112,VALID,0,VALID,93.3026,VALID,0,VALID,23.0378,VALID,236,VALID,0.673047,
2009-05-16, 03:02:04,VALID,998.132,VALID,0,VALID,93.2721,VALID,0,VALID,23.0769,VALID,236,VALID,0.508594,
2009-05-16, 03:03:04,VALID,998.106,VALID,0,VALID,93.1805,VALID,0,VALID,23.0981,VALID,236,VALID,0.147656,
2009-05-16, 03:04:04,VALID,998.109,VALID,0,VALID,93.0661,VALID,0,VALID,23.0769,VALID,236,VALID,0.35625,
2009-05-16, 03:05:04,VALID,998.15,VALID,0,VALID,92.9898,VALID,0,VALID,23.0769,VALID,236,VALID,0.246094,
2009-05-16, 03:06:04,VALID,998.159,VALID,0,VALID,92.9364,VALID,0,VALID,23.0573,VALID,236,VALID,0.233984,
2009-05-16, 03:07:04,VALID,998.145,VALID,0,VALID,92.9135,VALID,0,VALID,23.0591,VALID,236,VALID,0.294141,
2009-05-16, 03:08:04,VALID,998.152,VALID,0,VALID,92.9593,VALID,0,VALID,23.0378,VALID,236,VALID,0.227734,
2009-05-16, 03:09:04,VALID,998.135,VALID,0,VALID,92.883,VALID,0,VALID,22.9988,VALID,236,VALID,0.432422,
2009-05-16, 03:10:04,VALID,998.121,VALID,0,VALID,92.8296,VALID,0,VALID,22.9598,VALID,236,VALID,0.407031,
2009-05-16, 03:11:04,VALID,998.098,VALID,0,VALID,92.7075,VALID,0,VALID,22.9013,VALID,257,VALID,0.534375,
2009-05-16, 03:12:04,VALID,998.129,VALID,0,VALID,92.677,VALID,0,VALID,22.8427,VALID,331,VALID,0.594922,
2009-05-16, 03:13:04,VALID,998.091,VALID,0,VALID,92.9898,VALID,0,VALID,22.7842,VALID,332,VALID,0.830078,
2009-05-16, 03:14:04,VALID,998.11,VALID,0,VALID,93.3103,VALID,0,VALID,22.7842,VALID,338,VALID,0.929688,
2009-05-16, 03:15:04,VALID,998.103,VALID,0,VALID,93.4781,VALID,0,VALID,22.7842,VALID,338,VALID,1.01992,
2009-05-16, 03:16:04,VALID,998.138,VALID,0,VALID,93.5163,VALID,0,VALID,22.7452,VALID,346,VALID,1.16484,
2009-05-16, 03:17:04,VALID,998.134,VALID,0,VALID,93.6383,VALID,0,VALID,22.7274,VALID,356,VALID,1.39883,
2009-05-16, 03:18:04,VALID,998.162,VALID,0,VALID,93.6917,VALID,0,VALID,22.7062,VALID,1,VALID,1.37461,
2009-05-16, 03:19:04,VALID,998.17,VALID,0,VALID,93.7451,VALID,0,VALID,22.6867,VALID,7,VALID,1.32031,
2009-05-16, 03:20:04,VALID,998.175,VALID,0,VALID,93.852,VALID,0,VALID,22.6672,VALID,11,VALID,1.09219,
2009-05-16, 03:21:04,VALID,998.176,VALID,0,VALID,93.8977,VALID,0,VALID,22.6672,VALID,23,VALID,1.29727,
2009-05-16, 03:22:04,VALID,998.151,VALID,0,VALID,93.8596,VALID,0,VALID,22.6477,VALID,27,VALID,1.29492,
2009-05-16, 03:23:04,VALID,998.159,VALID,0,VALID,93.852,VALID,0,VALID,22.6477,VALID,22,VALID,1.22695,
2009-05-16, 03:24:04,VALID,998.157,VALID,0,VALID,93.8062,VALID,0,VALID,22.6282,VALID,9,VALID,0.7625,
2009-05-16, 03:25:04,VALID,998.137,VALID,0,VALID,93.7833,VALID,0,VALID,22.6104,VALID,1,VALID,0.593359,
2009-05-16, 03:26:04,VALID,998.146,VALID,0,VALID,93.9054,VALID,0,VALID,22.6282,VALID,357,VALID,0.441797,
2009-05-16, 03:27:04,VALID,998.092,VALID,0,VALID,94.0732,VALID,0,VALID,22.6672,VALID,338,VALID,0.420703,
2009-05-16, 03:28:04,VALID,998.093,VALID,0,VALID,94.1037,VALID,0,VALID,22.6867,VALID,338,VALID,0.303906,
2009-05-16, 03:29:04,VALID,998.124,VALID,0,VALID,94.119,VALID,0,VALID,22.7062,VALID,235,VALID,0.459375,
2009-05-16, 03:30:04,VALID,998.097,VALID,0,VALID,94.119,VALID,0,VALID,22.7257,VALID,234,VALID,0.375,
2009-05-16, 03:31:04,VALID,998.091,VALID,0,VALID,94.1037,VALID,0,VALID,22.7452,VALID,234,VALID,0.276172,
2009-05-16, 03:32:04,VALID,998.089,VALID,0,VALID,94.0503,VALID,0,VALID,22.7647,VALID,234,VALID,0.295703,
2009-05-16, 03:33:04,VALID,998.12,VALID,0,VALID,94.0808,VALID,0,VALID,22.7647,VALID,234,VALID,0.178125,
2009-05-16, 03:34:04,VALID,998.159,VALID,0,VALID,94.0885,VALID,0,VALID,22.786,VALID,234,VALID,0.277344,
2009-05-16, 03:35:04,VALID,998.166,VALID,0,VALID,94.1037,VALID,0,VALID,22.7842,VALID,207,VALID,0.489453,
2009-05-16, 03:36:04,VALID,998.147,VALID,0,VALID,94.058,VALID,0,VALID,22.7842,VALID,114,VALID,0.69375,
2009-05-16, 03:37:04,VALID,998.166,VALID,0,VALID,93.5544,VALID,0,VALID,22.7647,VALID,80,VALID,1.12305,
2009-05-16, 03:38:04,VALID,998.18,VALID,0,VALID,93.3103,VALID,0,VALID,22.7452,VALID,76,VALID,1.33789,
2009-05-16, 03:39:04,VALID,998.176,VALID,0,VALID,93.2111,VALID,0.112286,VALID,22.7257,VALID,63,VALID,1.40703,
2009-05-16, 03:40:04,VALID,998.223,VALID,0,VALID,93.1348,VALID,0,VALID,22.7062,VALID,57,VALID,1.30039,
2009-05-16, 03:41:04,VALID,998.166,VALID,0,VALID,93.1043,VALID,0,VALID,22.7257,VALID,55,VALID,1.14961,
2009-05-16, 03:42:04,VALID,998.183,VALID,0,VALID,93.0051,VALID,0,VALID,22.6867,VALID,51,VALID,0.9375,
2009-05-16, 03:43:04,VALID,998.174,VALID,0,VALID,92.9822,VALID,0,VALID,22.6655,VALID,40,VALID,0.770703,
2009-05-16, 03:44:04,VALID,998.227,VALID,0,VALID,92.9593,VALID,0,VALID,22.6477,VALID,27,VALID,0.691016,
2009-05-16, 03:45:04,VALID,998.232,VALID,0,VALID,93.0585,VALID,0,VALID,22.6069,VALID,18,VALID,0.771484,